AirNav   Duncan Aviation - Near you to keep you flying
 
 379 users online  

15LA Willis-Knighton South Hospital Heliport
Shreveport, Louisiana, USA

GOING TO SHREVEPORT?


FAA INFORMATION EFFECTIVE 08 SEPTEMBER 2022

Location

FAA Identifier: 15LA
Lat/Long: 32-24-10.5000N 093-47-55.3000W
32-24.175000N 093-47.921667W
32.4029167,-93.7986944
(estimated)
Elevation: 213 ft. / 65 m (estimated)
From city: 9 miles SSW of SHREVEPORT, LA
Time zone: UTC -5 (UTC -6 during Standard Time)
Zip code: 71118

Heliport Operations

Heliport use: Private use. Permission required prior to landing
Activation date: 10/2016
Control tower: no
ARTCC: FORT WORTH CENTER
FSS: DE RIDDER FLIGHT SERVICE STATION
Attendance: UNATNDD
Wind indicator: yes
Segmented circle: no

Heliport Communications

WX ASOS at SHV (3 nm NW): 128.45 (318-636-5767)
WX ASOS at DTN (9 nm N): 118.525 (318-425-7967)
WX AWOS-3PT at 3F3 (20 nm S): 119.125 (318-872-3537)

Nearby radio navigation aids

VOR radial/distance  VOR name  Freq  Var
EMGr264/10.3ELM GROVE VORTAC111.2007E
EICr172/22.1BELCHER VORTAC117.4007E

 
NDB name  Hdg/Dist  Freq  Var  ID
CARTHAGE058/28.633204ERPF .-. .--. ..-.
AMASON024/38.734104ECZJ -.-. --.. .---

Heliport Services

Runway Information

Helipad H1

Dimensions: 40 x 40 ft. / 12 x 12 m
Surface: concrete
Runway edge lights: PERI
Traffic pattern: leftleft

Heliport Ownership and Management from official FAA records

Ownership: Privately-owned
Owner: WILLIS-KNIGHTON SOUTH HOSPITAL
2510 BERT KOONS IND. LOOP
SHREVEPORT, LA 71118
Phone 318-212-5000
Manager: KERI ELROD
2510 BERT KOONS IND. LOOP
SHREVEPORT, LA 71118
Phone 318-212-5000

Additional Remarks

FOR CD CTC FORT WORTH ARTCC AT 817-858-7584.

Instrument Procedures

There are no published instrument procedures at 15LA.

Some nearby airports with instrument procedures:

KSHV - Shreveport Regional Airport (3 nm NW)
KDTN - Shreveport Downtown Airport (9 nm N)
KBAD - Barksdale Air Force Base (9 nm NE)
3F3 - C E 'Rusty' Williams Airport (20 nm S)
KASL - Harrison County Airport (27 nm W)
 
Loc | Ops | Rwys | IFR | FBO | Links
Com | Nav | Svcs | Stats | Notes
Aerial photo
No photo
 
Airport distance calculator
Flying to Willis-Knighton South Hospital Heliport? Find the distance to fly.

From to 15LA

Sunrise and sunset
Times for 02-Oct-2022
 Local
(UTC-5)
 Zulu
(UTC)
Morning civil twilight06:4611:46
Sunrise07:1112:11
Sunset18:5823:58
Evening civil twilight19:2300:23

Current date and time
Zulu (UTC)  02-Oct-2022 09:55:47
Local (UTC-5)  02-Oct-2022 04:55:47
 
METAR
KSHV 
3nm NW 
020856Z 32003KT 10SM CLR 13/11 A3011 RMK AO2 SLP192 T01330106 51006
KBAD 
9nm NE 
020855Z AUTO 33003KT 10SM CLR 11/09 A3010 RMK AO2 SLP196 T01110088 52006
KDTN 
9nm N 
020853Z AUTO 00000KT 10SM CLR 13/11 A3012 RMK AO2 SLP197 T01280106 52006
K3F3 
20nm S 
020935Z 15004KT 10SM CLR A3015 RMK AO2
TAF
KSHV 
3nm NW 
020520Z 0206/0306 00000KT P6SM SKC FM021500 05007KT P6SM SKC FM030000 00000KT P6SM SKC
KBAD 
9nm NE 
012200Z 0122/0302 01010KT 9999 SKC QNH3001INS BECMG 0200/0201 02005KT 9999 SKC QNH3003INS WND 05010KT AFT 0215 TX29/0220Z TN11/0212Z LAST NO AMDS AFT 0122 NEXT 0212
NOTAMs
Click for the latest NOTAMs
NOTAMs are issued by the DoD/FAA and will open in a separate window not controlled by AirNav.

 

 
 

Would you like to see your business listed on this page?

 If your business provides an interesting product or service to pilots, flight crews, aircraft, or users of the Willis-Knighton South Hospital Heliport, you should consider listing it here.  To start the listing process, click on the button below
 
Add a business
 

Other Pages about Willis-Knighton South Hospital Heliport

Update a link
 
Copyright © AirNav, LLC. All rights reserved. Privacy Policy  Contact